Owensboro, KY

9:12 AM CDT on March 25, 2017 (GMT -0500)
Owensboro-Daviess County

Weather History for KOWB - November, 2013

Change the Weather History Date:

Sunday, November 10, 2013

  Actual Average Record
Temperature  
Mean Temperature 46 °F -  
Max Temperature 55 °F 58 °F 76 °F (1985)
Min Temperature 34 °F 38 °F 18 °F (1973)
Degree Days  
Heating Degree Days 20    
Moisture  
Dew Point 33 °F    
Average Humidity 69    
Maximum Humidity 100    
Minimum Humidity 31    
Precipitation  
Precipitation 0.00 in - - ()
Sea Level Pressure  
Sea Level Pressure 30.34 in    
Wind  
Wind Speed 4 mph (NW)    
Max Wind Speed 9 mph    
Max Gust Speed -    
Visibility 10 miles    
Events      
Averages and records for this station are not official NWS values.
T = Trace of Precipitation, MM = Missing Value Source: NWS Daily Summary

Daily Weather History Graph

Daily Weather History Graph

Search for Another Location

Airport or City:

Trip Planner

Search our weather history database for the weather conditions in past years. The results will help you decide how hot, cold, wet, or windy it might be!

Date:

Astronomy

Nov. 10, 2013 Rise Set
Actual Time 6:23 AM CST 4:41 PM CST
Civil Twilight 5:56 AM CST 5:08 PM CST
Nautical Twilight 5:24 AM CST 5:40 PM CST
Astronomical Twilight 4:53 AM CST 6:11 PM CST
Moon 12:39 PM CST (11/10) No Moon Set
Length of Visible Light 11h 12m
Length of Day
10h 17m
First Quarter, 56% of the Moon is Illuminated
Nov 10
First Quarter
Nov 17
Full
Nov 25
Last Quarter
Dec 2
New
Dec 9
First Quarter

Hourly Weather History & Observations

Time (CST) Temp. Windchill Dew Point Humidity Pressure Visibility Wind Dir Wind Speed Gust Speed Precip Events Conditions
12:56 AM 43.0 °F 41.3 °F 38.8 °F 85% 30.23 in 10.0 mi WSW 3.5 mph - N/A   Clear
1:56 AM 41.9 °F - 38.8 °F 89% 30.24 in 10.0 mi Calm Calm - N/A   Clear
2:56 AM 38.8 °F - 36.9 °F 93% 30.25 in 10.0 mi Calm Calm - N/A   Clear
3:56 AM 41.9 °F 39.0 °F 39.9 °F 93% 30.26 in 10.0 mi NW 4.6 mph - N/A   Clear
4:56 AM 41.0 °F 38.0 °F 41.0 °F 100% 30.29 in 10.0 mi NW 4.6 mph - N/A   Clear
5:56 AM 41.0 °F 39.0 °F 41.0 °F 100% 30.32 in 8.0 mi NW 3.5 mph - N/A   Clear
6:56 AM 41.0 °F 38.0 °F 41.0 °F 100% 30.35 in 10.0 mi NNW 4.6 mph - N/A   Clear
7:56 AM 45.9 °F 43.6 °F 38.8 °F 76% 30.37 in 10.0 mi NNW 4.6 mph - N/A   Clear
8:56 AM 47.8 °F - 36.0 °F 63% 30.39 in 10.0 mi North 9.2 mph - N/A   Clear
9:56 AM 50.0 °F - 34.9 °F 56% 30.40 in 10.0 mi NNW 9.2 mph - N/A   Clear
10:56 AM 52.0 °F - 32.0 °F 47% 30.40 in 10.0 mi NNE 8.1 mph - N/A   Clear
11:56 AM 54.0 °F - 29.1 °F 39% 30.37 in 10.0 mi Variable 3.5 mph - N/A   Clear
12:56 PM 54.9 °F - 27.1 °F 34% 30.36 in 10.0 mi NNW 9.2 mph - N/A   Clear
1:56 PM 55.9 °F - 25.2 °F 31% 30.35 in 10.0 mi NNW 6.9 mph - N/A   Clear
2:56 PM 54.9 °F - 28.0 °F 36% 30.35 in 10.0 mi NNW 6.9 mph - N/A   Clear
3:56 PM 52.9 °F - 29.1 °F 40% 30.35 in 10.0 mi WNW 6.9 mph - N/A   Clear
4:56 PM 48.9 °F - 30.0 °F 48% 30.35 in 10.0 mi WNW 3.5 mph - N/A   Clear
5:56 PM 43.9 °F 41.3 °F 30.0 °F 58% 30.37 in 10.0 mi NW 4.6 mph - N/A   Clear
6:56 PM 41.9 °F 40.0 °F 30.0 °F 63% 30.37 in 10.0 mi NE 3.5 mph - N/A   Clear
7:56 PM 39.9 °F - 31.1 °F 71% 30.36 in 10.0 mi Calm Calm - N/A   Clear
8:56 PM 36.0 °F - 30.0 °F 79% 30.35 in 10.0 mi Calm Calm - N/A   Clear
9:56 PM 36.0 °F - 31.1 °F 82% 30.35 in 10.0 mi Calm Calm - N/A   Clear
10:56 PM 36.0 °F - 30.0 °F 79% 30.34 in 10.0 mi Calm Calm - N/A   Clear
11:56 PM 34.9 °F - 30.0 °F 82% 30.35 in 10.0 mi Calm Calm - N/A   Clear